Time,TemperatureF,DewpointF,PressureIn,WindDirection,WindDirectionDegrees,WindSpeedMPH,WindSpeedGustMPH,Humidity,HourlyPrecipIn,Conditions,Clouds,dailyrainin,SoftwareType,DateUTC
2013-07-14 00:11:00,70.4,70.0,29.91,NNE,20,4.0,-999.0,100,-99.99,,,0.00,weatherlink.com 1.10,2013-07-13 21:11:00,
2013-07-14 00:26:00,70.3,70.0,29.91,NNE,27,0.0,-999.0,100,-99.99,,,0.00,weatherlink.com 1.10,2013-07-13 21:26:00,
2013-07-14 00:41:00,70.3,70.0,29.91,NNE,27,1.0,-999.0,100,-99.99,,,0.00,weatherlink.com 1.10,2013-07-13 21:41:00,
2013-07-14 00:56:00,70.3,70.0,29.91,NNE,27,0.0,-999.0,100,-99.99,,,0.00,weatherlink.com 1.10,2013-07-13 21:56:00,
2013-07-14 01:11:00,70.1,70.0,29.91,NNE,27,0.0,-999.0,100,-99.99,,,0.00,weatherlink.com 1.10,2013-07-13 22:11:00,
2013-07-14 01:26:00,69.9,70.0,29.91,NNE,23,3.0,-999.0,100,-99.99,,,0.00,weatherlink.com 1.10,2013-07-13 22:26:00,
2013-07-14 01:41:00,69.8,70.0,29.91,NNE,23,2.0,-999.0,100,-99.99,,,0.00,weatherlink.com 1.10,2013-07-13 22:41:00,
2013-07-14 01:56:00,69.9,70.0,29.91,NNE,32,3.0,-999.0,100,-99.99,,,0.00,weatherlink.com 1.10,2013-07-13 22:56:00,
2013-07-14 02:11:00,69.9,70.0,29.91,NNE,21,0.0,-999.0,100,-99.99,,,0.00,weatherlink.com 1.10,2013-07-13 23:11:00,
2013-07-14 02:26:00,69.8,70.0,29.91,NNE,21,0.0,-999.0,100,-99.99,,,0.00,weatherlink.com 1.10,2013-07-13 23:26:00,
2013-07-14 02:41:00,69.6,70.0,29.91,North,10,0.0,-999.0,100,-99.99,,,0.00,weatherlink.com 1.10,2013-07-13 23:41:00,
2013-07-14 02:56:00,69.6,70.0,29.91,NNE,21,0.0,-999.0,100,-99.99,,,0.00,weatherlink.com 1.10,2013-07-13 23:56:00,
2013-07-14 03:11:00,69.6,70.0,29.91,NNE,21,0.0,-999.0,100,-99.99,,,0.00,weatherlink.com 1.10,2013-07-14 00:11:00,
2013-07-14 03:26:00,69.6,70.0,29.91,North,1,0.0,-999.0,100,-99.99,,,0.00,weatherlink.com 1.10,2013-07-14 00:26:00,
2013-07-14 03:41:00,69.8,70.0,29.91,NE,41,0.0,-999.0,100,-99.99,,,0.00,weatherlink.com 1.10,2013-07-14 00:41:00,
2013-07-14 03:56:00,69.8,70.0,29.91,North,352,3.0,-999.0,100,-99.99,,,0.00,weatherlink.com 1.10,2013-07-14 00:56:00,
2013-07-14 04:11:00,69.8,70.0,29.91,NNE,25,0.0,-999.0,100,-99.99,,,0.00,weatherlink.com 1.10,2013-07-14 01:11:00,
2013-07-14 04:26:00,69.6,70.0,29.91,North,8,2.0,-999.0,100,-99.99,,,0.00,weatherlink.com 1.10,2013-07-14 01:26:00,
2013-07-14 04:41:00,69.8,70.0,29.91,North,0,0.0,-999.0,100,-99.99,,,0.00,weatherlink.com 1.10,2013-07-14 01:41:00,
2013-07-14 04:56:00,69.6,70.0,29.91,NE,34,0.0,-999.0,100,-99.99,,,0.00,weatherlink.com 1.10,2013-07-14 01:56:00,
2013-07-14 05:11:00,69.6,70.0,29.91,North,10,0.0,-999.0,100,-99.99,,,0.00,weatherlink.com 1.10,2013-07-14 02:11:00,
2013-07-14 05:26:00,69.6,70.0,29.91,NNE,25,2.0,-999.0,100,-99.99,,,0.00,weatherlink.com 1.10,2013-07-14 02:26:00,
2013-07-14 05:41:00,69.6,70.0,29.91,NNE,25,0.0,-999.0,100,-99.99,,,0.00,weatherlink.com 1.10,2013-07-14 02:41:00,
2013-07-14 05:56:00,69.6,70.0,29.91,NNE,25,0.0,-999.0,100,-99.99,,,0.00,weatherlink.com 1.10,2013-07-14 02:56:00,
2013-07-14 06:11:00,69.6,70.0,29.91,NNE,25,0.0,-999.0,100,-99.99,,,0.00,weatherlink.com 1.10,2013-07-14 03:11:00,
2013-07-14 06:26:00,69.6,70.0,29.91,NNE,25,3.0,-999.0,100,-99.99,,,0.00,weatherlink.com 1.10,2013-07-14 03:26:00,
2013-07-14 06:41:00,69.9,70.0,29.91,NNE,28,0.0,-999.0,100,-99.99,,,0.00,weatherlink.com 1.10,2013-07-14 03:41:00,
2013-07-14 06:56:00,70.1,70.0,29.91,NNE,25,0.0,-999.0,100,-99.99,,,0.00,weatherlink.com 1.10,2013-07-14 03:56:00,
2013-07-14 07:11:00,70.3,70.0,29.92,North,7,0.0,-999.0,100,-99.99,,,0.00,weatherlink.com 1.10,2013-07-14 04:11:00,
2013-07-14 07:26:00,70.9,71.0,29.92,North,6,0.0,-999.0,100,-99.99,,,0.00,weatherlink.com 1.10,2013-07-14 04:26:00,
2013-07-14 07:41:00,71.5,72.0,29.91,NNE,17,3.0,-999.0,100,-99.99,,,0.00,weatherlink.com 1.10,2013-07-14 04:41:00,
2013-07-14 07:56:00,72.3,72.0,29.91,NNE,32,4.0,-999.0,100,-99.99,,,0.00,weatherlink.com 1.10,2013-07-14 04:56:00,
2013-07-14 08:11:00,72.7,73.0,29.92,NNE,20,11.0,-999.0,100,-99.99,,,0.01,weatherlink.com 1.10,2013-07-14 05:11:00,
2013-07-14 08:26:00,73.2,73.0,29.92,NE,45,7.0,-999.0,100,-99.99,,,0.01,weatherlink.com 1.10,2013-07-14 05:26:00,
2013-07-14 08:41:00,73.3,73.0,29.92,NNE,31,6.0,-999.0,100,-99.99,,,0.01,weatherlink.com 1.10,2013-07-14 05:41:00,
2013-07-14 08:56:00,73.9,74.0,29.91,NNE,32,6.0,-999.0,100,-99.99,,,0.01,weatherlink.com 1.10,2013-07-14 05:56:00,
2013-07-14 09:11:00,73.9,74.0,29.92,NNE,25,8.0,-999.0,100,-99.99,,,0.01,weatherlink.com 1.10,2013-07-14 06:11:00,
2013-07-14 09:26:00,74.2,74.0,29.92,North,1,2.0,-999.0,100,-99.99,,,0.01,weatherlink.com 1.10,2013-07-14 06:26:00,
2013-07-14 09:41:00,76.0,76.0,29.92,NE,35,7.0,-999.0,100,-99.99,,,0.01,weatherlink.com 1.10,2013-07-14 06:41:00,
2013-07-14 09:56:00,76.5,77.0,29.91,NE,52,12.0,-999.0,100,-99.99,,,0.01,weatherlink.com 1.10,2013-07-14 06:56:00,
2013-07-14 10:12:00,76.3,76.0,29.91,North,11,3.0,-999.0,100,-99.99,,,0.01,weatherlink.com 1.10,2013-07-14 07:12:00,
2013-07-14 10:27:00,76.7,77.0,29.91,North,0,0.0,-999.0,100,-99.99,,,0.01,weatherlink.com 1.10,2013-07-14 07:27:00,
2013-07-14 10:42:00,77.0,77.0,29.91,NNE,28,7.0,-999.0,100,-99.99,,,0.01,weatherlink.com 1.10,2013-07-14 07:42:00,
2013-07-14 10:57:00,77.0,77.0,29.91,NNE,20,6.0,-999.0,100,-99.99,,,0.01,weatherlink.com 1.10,2013-07-14 07:57:00,
2013-07-14 11:12:00,77.4,77.0,29.91,NNE,25,5.0,-999.0,100,-99.99,,,0.01,weatherlink.com 1.10,2013-07-14 08:12:00,
2013-07-14 11:27:00,77.0,77.0,29.91,North,357,5.0,-999.0,100,-99.99,,,0.01,weatherlink.com 1.10,2013-07-14 08:27:00,
2013-07-14 11:42:00,77.4,77.0,29.91,ENE,68,7.0,-999.0,100,-99.99,,,0.01,weatherlink.com 1.10,2013-07-14 08:42:00,
2013-07-14 11:57:00,77.4,77.0,29.91,NNE,25,5.0,-999.0,100,-99.99,,,0.01,weatherlink.com 1.10,2013-07-14 08:57:00,
2013-07-14 12:12:00,77.9,78.0,29.91,ENE,58,7.0,-999.0,100,-99.99,,,0.01,weatherlink.com 1.10,2013-07-14 09:12:00,
2013-07-14 12:27:00,78.1,78.0,29.90,North,11,8.0,-999.0,100,-99.99,,,0.01,weatherlink.com 1.10,2013-07-14 09:27:00,
2013-07-14 12:42:00,77.7,78.0,29.91,NNE,17,11.0,-999.0,100,-99.99,,,0.01,weatherlink.com 1.10,2013-07-14 09:42:00,
2013-07-14 12:57:00,77.7,78.0,29.90,NNE,31,10.0,-999.0,100,-99.99,,,0.01,weatherlink.com 1.10,2013-07-14 09:57:00,
2013-07-14 13:12:00,77.7,78.0,29.90,NNE,17,12.0,-999.0,100,-99.99,,,0.01,weatherlink.com 1.10,2013-07-14 10:12:00,
2013-07-14 13:27:00,78.1,78.0,29.90,NNE,28,8.0,-999.0,100,-99.99,,,0.01,weatherlink.com 1.10,2013-07-14 10:27:00,
2013-07-14 13:43:00,78.3,78.0,29.90,North,6,14.0,-999.0,100,-99.99,,,0.01,weatherlink.com 1.10,2013-07-14 10:43:00,
2013-07-14 13:58:00,77.6,78.0,29.90,North,8,5.0,-999.0,100,-99.99,,,0.01,weatherlink.com 1.10,2013-07-14 10:58:00,
2013-07-14 14:13:00,77.7,78.0,29.90,NE,44,0.0,-999.0,100,-99.99,,,0.01,weatherlink.com 1.10,2013-07-14 11:13:00,
2013-07-14 14:29:00,78.5,79.0,29.90,North,11,7.0,-999.0,100,-99.99,,,0.01,weatherlink.com 1.10,2013-07-14 11:29:00,
2013-07-14 14:43:00,78.8,79.0,29.90,North,350,0.0,-999.0,100,-99.99,,,0.01,weatherlink.com 1.10,2013-07-14 11:43:00,
2013-07-14 14:58:00,77.9,78.0,29.90,NNW,337,5.0,-999.0,100,-99.99,,,0.01,weatherlink.com 1.10,2013-07-14 11:58:00,
2013-07-14 15:13:00,78.1,78.0,29.90,NE,37,11.0,-999.0,100,-99.99,,,0.01,weatherlink.com 1.10,2013-07-14 12:13:00,
2013-07-14 15:28:00,78.1,78.0,29.90,North,6,12.0,-999.0,100,-99.99,,,0.01,weatherlink.com 1.10,2013-07-14 12:28:00,
2013-07-14 15:43:00,77.7,78.0,29.89,NNE,17,14.0,-999.0,100,-99.99,,,0.01,weatherlink.com 1.10,2013-07-14 12:43:00,
2013-07-14 15:58:00,77.4,77.0,29.90,North,4,9.0,-999.0,100,-99.99,,,0.01,weatherlink.com 1.10,2013-07-14 12:58:00,
2013-07-14 16:13:00,77.4,77.0,29.89,NE,37,8.0,-999.0,100,-99.99,,,0.01,weatherlink.com 1.10,2013-07-14 13:13:00,
2013-07-14 16:28:00,77.0,77.0,29.89,NNE,20,12.0,-999.0,100,-99.99,,,0.01,weatherlink.com 1.10,2013-07-14 13:28:00,
2013-07-14 16:43:00,76.5,77.0,29.89,NNE,24,18.0,-999.0,100,-99.99,,,0.01,weatherlink.com 1.10,2013-07-14 13:43:00,
2013-07-14 16:58:00,76.5,77.0,29.89,NNE,14,14.0,-999.0,100,-99.99,,,0.01,weatherlink.com 1.10,2013-07-14 13:58:00,
2013-07-14 17:14:00,76.5,77.0,29.89,NNE,24,18.0,-999.0,100,-99.99,,,0.01,weatherlink.com 1.10,2013-07-14 14:14:00,
2013-07-14 17:29:00,76.3,76.0,29.89,NNE,27,11.0,-999.0,100,-99.99,,,0.01,weatherlink.com 1.10,2013-07-14 14:29:00,
2013-07-14 17:44:00,76.1,76.0,29.89,North,0,6.0,-999.0,100,-99.99,,,0.01,weatherlink.com 1.10,2013-07-14 14:44:00,
2013-07-14 17:59:00,76.0,76.0,29.89,North,6,9.0,-999.0,100,-99.99,,,0.01,weatherlink.com 1.10,2013-07-14 14:59:00,
2013-07-14 18:14:00,75.8,76.0,29.89,NE,49,11.0,-999.0,100,-99.99,,,0.01,weatherlink.com 1.10,2013-07-14 15:14:00,
2013-07-14 18:29:00,76.0,76.0,29.89,NNE,30,5.0,-999.0,100,-99.99,,,0.01,weatherlink.com 1.10,2013-07-14 15:29:00,
2013-07-14 18:44:00,76.0,76.0,29.89,NNE,24,11.0,-999.0,100,-99.99,,,0.01,weatherlink.com 1.10,2013-07-14 15:44:00,
2013-07-14 18:59:00,76.0,76.0,29.89,NNE,20,11.0,-999.0,100,-99.99,,,0.01,weatherlink.com 1.10,2013-07-14 15:59:00,
2013-07-14 19:14:00,75.8,76.0,29.89,NNE,25,7.0,-999.0,100,-99.99,,,0.01,weatherlink.com 1.10,2013-07-14 16:14:00,
2013-07-14 19:29:00,75.6,76.0,29.89,NE,35,10.0,-999.0,100,-99.99,,,0.01,weatherlink.com 1.10,2013-07-14 16:29:00,
2013-07-14 19:44:00,75.4,75.0,29.89,NE,44,4.0,-999.0,100,-99.99,,,0.01,weatherlink.com 1.10,2013-07-14 16:44:00,
2013-07-14 19:59:00,75.1,75.0,29.89,NE,38,6.0,-999.0,100,-99.99,,,0.01,weatherlink.com 1.10,2013-07-14 16:59:00,
2013-07-14 20:14:00,74.9,75.0,29.89,North,8,11.0,-999.0,100,-99.99,,,0.01,weatherlink.com 1.10,2013-07-14 17:14:00,
2013-07-14 20:30:00,74.4,74.0,29.89,NE,37,5.0,-999.0,100,-99.99,,,0.01,weatherlink.com 1.10,2013-07-14 17:30:00,
2013-07-14 20:45:00,74.0,74.0,29.89,NE,40,4.0,-999.0,100,-99.99,,,0.01,weatherlink.com 1.10,2013-07-14 17:45:00,
2013-07-14 21:00:00,73.9,74.0,29.89,NE,38,5.0,-999.0,100,-99.99,,,0.01,weatherlink.com 1.10,2013-07-14 18:00:00,
2013-07-14 21:15:00,73.5,74.0,29.89,NE,41,3.0,-999.0,100,-99.99,,,0.01,weatherlink.com 1.10,2013-07-14 18:15:00,
2013-07-14 21:30:00,73.0,73.0,29.89,NE,35,4.0,-999.0,100,-99.99,,,0.01,weatherlink.com 1.10,2013-07-14 18:30:00,
2013-07-14 21:45:00,72.7,73.0,29.89,NE,40,1.0,-999.0,100,-99.99,,,0.01,weatherlink.com 1.10,2013-07-14 18:45:00,
2013-07-14 22:00:00,72.8,73.0,29.90,NE,52,0.0,-999.0,100,-99.99,,,0.01,weatherlink.com 1.10,2013-07-14 19:00:00,
2013-07-14 22:15:00,72.7,73.0,29.90,NE,52,0.0,-999.0,100,-99.99,,,0.01,weatherlink.com 1.10,2013-07-14 19:15:00,
2013-07-14 22:30:00,72.5,73.0,29.90,NE,48,0.0,-999.0,100,-99.99,,,0.01,weatherlink.com 1.10,2013-07-14 19:30:00,
2013-07-14 22:45:00,72.0,72.0,29.91,NE,48,1.0,-999.0,100,-99.99,,,0.01,weatherlink.com 1.10,2013-07-14 19:45:00,
2013-07-14 23:00:00,71.6,72.0,29.91,NE,48,0.0,-999.0,100,-99.99,,,0.01,weatherlink.com 1.10,2013-07-14 20:00:00,
2013-07-14 23:15:00,71.5,72.0,29.91,NE,48,0.0,-999.0,100,-99.99,,,0.01,weatherlink.com 1.10,2013-07-14 20:15:00,
2013-07-14 23:30:00,71.1,71.0,29.91,NE,48,1.0,-999.0,100,-99.99,,,0.01,weatherlink.com 1.10,2013-07-14 20:30:00,
2013-07-14 23:45:00,70.8,71.0,29.91,NE,48,0.0,-999.0,100,-99.99,,,0.01,weatherlink.com 1.10,2013-07-14 20:45:00,